RH
74 74 75 75 69 70 72 69 66 64 73 79 82 86 82 78 77 73 70 69 66 68 72 74 78 81 83 83 84 85 80 75 77 84 83 76 77 77 80 92 94 93 95 95 88 79 77 69 60 56 47 37 30 26 23 21 20 21 21 22 21 21 21 22 23 23 23 24 26 27 28 28 27 25 23 20 18 16 16 19 21 23 28 32 35 37 36 32 28 24 23 22 20 17 14 13 13
70 68 71 74 71 73 69 67 68 61 68 80 83 82 80 78 74 71 68 68 67 68 70 72 77 81 84 84 81 80 78 75 77 79 75 71 75 75 73 80 84 87 91 85 74 68 66 58 49 42 34 28 27 26 23 20 19 20 22 22 20 20 20 21 21 21 23 24 26 27 29 30 30 28 26 23 22 20 18 17 18 22 26 28 30 32 33 34 34 32 28 25 23 22 20 17 15
69 65 66 68 68 70 65 68 68 61 72 81 82 82 80 78 74 72 69 67 67 68 69 71 74 79 82 82 80 78 78 73 71 71 69 67 69 74 71 70 76 81 81 69 59 58 54 44 36 31 26 25 26 25 21 18 18 20 21 20 19 19 19 20 21 23 24 25 27 29 31 31 32 32 30 28 25 23 20 17 16 20 23 25 27 28 29 29 31 34 35 33 30 27 25 24 23
72 67 64 63 62 63 64 67 66 68 76 73 72 79 80 78 74 71 69 66 65 66 68 71 72 76 81 81 80 78 77 74 69 69 67 64 61 64 67 68 73 75 68 54 50 50 40 33 29 26 25 25 25 23 19 17 19 21 20 19 18 19 20 22 23 25 27 29 32 33 35 34 34 33 32 31 30 29 27 25 22 22 22 21 22 23 25 26 27 30 33 36 36 34 32 30 29
73 70 66 63 59 59 59 58 60 67 72 67 63 66 70 70 69 67 66 63 62 65 65 69 72 74 77 76 76 75 77 75 69 68 66 62 55 52 60 68 72 74 63 46 44 42 32 29 27 25 25 23 23 21 18 18 19 20 19 19 20 22 23 26 28 30 33 35 37 38 38 37 36 35 32 31 31 32 33 33 31 29 27 24 23 21 21 21 22 25 28 31 33 34 36 36 35
69 67 64 61 59 59 59 61 64 64 61 64 64 58 60 60 60 60 60 59 59 63 64 68 71 70 71 71 74 75 76 75 69 65 61 55 49 45 52 62 70 74 63 45 39 35 30 29 28 27 26 24 22 19 18 18 19 19 19 20 22 25 28 31 33 36 39 42 43 44 43 42 41 39 36 34 34 35 37 38 37 36 34 32 31 29 27 24 22 23 24 26 27 28 30 34 37
66 63 60 56 55 53 58 68 70 67 55 55 60 56 55 54 55 56 56 58 58 60 62 66 68 67 68 69 72 75 76 74 70 64 56 46 41 41 46 56 67 71 61 46 38 34 31 30 30 29 28 24 20 17 17 18 19 20 21 23 26 29 32 35 38 41 43 46 49 52 53 51 47 44 42 40 41 43 44 45 45 43 41 39 37 37 38 38 36 35 35 34 34 33 32 31 34
64 61 56 54 57 57 64 68 63 63 56 47 50 51 52 52 52 54 54 56 59 60 63 64 66 67 68 69 69 73 75 72 69 63 54 42 35 37 40 46 56 61 55 43 37 33 31 30 30 29 26 22 18 16 17 19 21 23 25 27 29 32 35 38 39 39 39 40 44 50 55 56 53 50 47 46 47 49 51 52 52 52 51 48 44 42 41 43 44 44 45 45 46 46 45 42 39
67 65 56 55 61 70 74 63 57 59 55 49 45 46 48 49 49 51 54 56 61 62 63 64 65 66 66 68 68 69 72 70 68 62 52 40 33 33 33 35 39 45 45 40 36 31 29 30 30 28 23 18 15 16 18 21 23 25 28 30 32 34 37 37 33 30 27 28 32 37 43 45 45 44 42 41 43 45 47 48 48 49 50 50 48 44 42 42 42 42 42 42 45 47 49 51 51
72 72 64 58 54 72 80 59 55 55 50 51 47 43 42 42 44 47 53 56 60 63 64 65 64 64 64 67 66 65 68 67 66 62 53 39 32 31 30 29 29 33 36 36 33 28 27 27 26 25 20 16 14 17 21 23 24 27 31 33 35 35 35 31 24 19 17 17 20 23 25 26 26 25 24 23 25 27 28 28 28 29 29 30 30 29 27 27 27 26 27 27 29 32 37 43 49
74 75 70 62 52 72 88 67 52 46 42 45 46 46 44 41 40 42 47 51 55 60 64 65 64 63 63 65 65 64 65 64 64 61 52 41 33 31 29 27 26 26 27 29 28 23 22 21 21 22 18 14 15 20 23 23 25 28 31 35 35 32 27 22 15 12 10 11 12 13 14 14 14 14 13 13 13 13 13 13 12 12 12 12 12 13 13 13 14 15 17 17 16 19 24 32 40
76 78 73 64 56 66 77 71 61 49 42 47 55 54 50 48 45 42 40 44 50 56 60 61 62 62 63 64 64 61 61 62 62 59 51 42 36 33 31 28 26 23 21 22 22 19 17 16 17 18 15 14 18 22 23 23 25 28 32 35 31 25 19 14 11 8 7 8 9 10 11 11 12 11 11 11 11 10 10 9 8 9 9 10 10 12 14 14 14 14 14 13 14 17 20 24 29
78 80 76 67 59 62 66 72 71 56 44 47 60 57 48 49 49 46 39 40 48 54 56 56 59 63 65 65 63 60 59 59 58 57 51 42 37 35 33 30 26 22 20 20 19 17 14 15 16 15 14 16 22 24 23 23 24 26 31 32 26 18 13 10 8 7 7 8 9 10 11 10 10 9 9 10 10 9 8 8 10 13 14 12 12 13 14 13 12 13 13 14 16 18 19 19 20
80 80 79 72 62 64 67 76 72 60 53 47 53 53 45 43 44 45 42 44 49 53 56 55 58 63 66 65 64 61 58 57 54 55 52 44 39 37 35 31 26 22 21 20 18 15 13 16 15 13 14 18 25 24 22 21 22 25 29 28 21 14 9 7 6 7 8 9 10 10 10 9 8 8 9 9 10 9 10 12 17 20 18 14 12 12 10 9 10 11 12 13 15 16 16 15 15
80 79 79 77 69 69 73 78 71 64 65 54 49 48 47 45 40 44 46 48 50 52 54 54 57 61 63 63 65 65 59 56 52 52 52 48 42 39 37 32 27 24 22 20 16 13 12 12 11 13 17 21 25 24 21 20 21 24 25 23 16 11 8 6 6 7 8 9 10 10 9 9 9 9 9 10 9 12 16 19 22 23 19 15 12 11 10 11 11 11 11 11 12 12 12 13 13
78 78 78 78 73 75 77 78 70 66 64 52 43 39 50 54 41 46 49 47 49 49 50 51 55 58 60 61 63 66 63 57 51 50 50 49 46 42 38 33 28 25 23 18 14 11 10 10 9 14 21 24 24 22 20 19 20 22 22 19 13 10 7 5 7 7 8 9 10 10 9 9 9 10 10 10 11 18 24 22 20 19 19 16 13 11 12 15 15 13 12 12 12 11 10 10 11
76 76 77 78 75 75 77 77 74 71 59 44 37 29 44 57 42 42 47 47 48 49 49 48 50 51 54 59 60 65 67 61 54 49 47 46 45 42 38 33 29 26 23 17 12 10 8 8 9 13 21 26 24 21 20 18 18 20 18 15 11 8 6 7 8 9 9 9 9 9 10 10 10 10 9 10 14 22 25 21 17 18 19 16 12 12 14 16 16 15 14 14 15 14 13 12 10
76 75 77 77 74 70 71 76 76 71 55 42 37 28 39 55 42 29 34 41 41 44 50 49 47 46 50 54 56 61 67 66 58 50 46 43 41 40 37 32 30 26 24 17 11 10 7 8 9 13 22 25 23 21 18 16 17 17 15 12 9 7 6 8 9 11 10 9 10 10 10 11 10 9 9 12 17 20 19 18 18 16 16 15 12 11 11 13 14 15 16 15 15 18 19 17 13
76 75 77 75 72 68 68 75 75 68 56 45 39 33 37 48 40 24 23 26 24 31 43 50 48 45 48 50 53 58 62 65 62 53 45 42 39 38 36 32 31 27 24 17 12 10 7 8 9 14 23 24 22 20 17 15 16 15 12 10 8 6 6 8 11 12 12 11 10 10 11 11 11 10 10 14 17 18 16 15 16 14 12 12 11 10 10 10 11 13 13 13 16 20 24 20 13
73 75 76 73 70 68 68 71 71 66 60 50 42 37 35 42 38 27 27 22 17 25 35 46 52 50 48 46 51 56 58 59 59 56 47 41 39 37 36 33 31 29 25 19 12 11 8 8 10 16 23 23 19 18 16 15 15 14 11 8 7 7 7 9 11 13 13 13 12 11 11 11 12 12 12 13 15 18 16 14 14 14 12 10 10 11 11 10 11 13 11 13 17 16 18 17 12
69 71 71 71 68 68 69 68 66 63 60 52 43 37 37 41 30 23 37 32 19 24 27 33 44 51 51 45 47 51 55 55 53 54 49 43 41 38 37 35 33 30 25 19 13 11 9 8 11 17 24 23 19 18 15 14 15 13 10 8 8 8 9 10 12 13 13 14 13 12 11 12 13 11 10 10 10 12 12 12 12 12 11 9 9 9 10 9 10 12 10 11 13 11 11 13 13
63 61 64 72 69 68 70 68 65 61 58 52 40 33 36 35 19 19 44 46 30 31 28 23 27 37 48 49 47 48 51 52 48 50 49 46 42 39 38 37 36 31 23 17 12 11 9 8 12 18 24 22 19 18 16 15 14 12 9 8 8 9 10 11 12 12 13 14 14 14 12 12 11 9 8 7 7 8 8 9 9 9 8 8 7 8 8 8 8 8 8 8 8 9 10 11 12
53 52 61 74 73 71 71 67 64 60 56 51 39 33 31 22 18 20 31 49 50 46 40 27 20 22 35 45 47 49 50 51 48 46 46 46 43 38 36 36 34 29 22 15 12 11 8 9 13 19 22 19 18 18 18 16 14 11 8 7 7 9 11 12 13 13 13 14 15 15 13 12 10 9 8 7 7 7 8 7 7 7 7 7 7 7 7 7 8 8 8 8 7 8 9 10 11
43 47 60 73 77 74 71 68 63 58 53 49 39 32 25 18 30 28 24 51 56 43 40 29 18 17 23 31 35 39 41 45 49 47 44 43 42 39 35 33 30 27 21 14 12 10 8 9 14 20 21 17 16 19 20 18 15 12 8 6 7 8 11 13 14 14 13 14 14 14 12 11 10 9 8 8 7 7 7 7 7 7 7 7 7 7 7 8 8 8 8 7 8 8 7 8 9
40 47 57 68 79 76 71 69 62 57 52 48 40 29 23 22 33 31 27 45 39 24 26 19 14 17 19 23 24 24 25 29 38 46 46 43 42 40 36 32 28 26 20 14 11 9 9 11 16 21 20 16 15 18 22 20 15 13 10 7 7 9 11 13 14 14 13 13 13 12 11 10 9 9 9 8 6 6 6 6 7 7 7 7 7 7 7 8 8 8 8 8 8 7 7 8 8
40 44 47 55 69 74 74 70 61 58 51 47 41 29 24 22 25 26 24 26 18 11 13 10 12 17 17 20 20 19 17 17 23 35 43 43 42 40 35 30 27 25 19 14 11 9 10 13 18 22 18 14 14 17 22 22 16 13 12 8 7 9 11 12 13 13 13 12 12 11 10 9 8 9 9 7 6 6 6 6 7 7 7 7 7 7 7 8 8 8 8 8 8 7 7 7 7
40 40 39 44 57 69 76 69 60 59 54 48 42 31 25 24 28 31 27 19 12 9 10 11 13 14 16 17 18 18 16 14 17 27 38 43 41 35 30 26 24 22 17 13 10 8 11 16 21 22 17 13 13 15 19 23 18 12 12 11 9 10 11 11 12 12 12 12 11 10 9 8 8 9 9 8 6 6 6 6 6 7 7 7 7 7 8 8 7 7 7 7 7 7 8 7 7
42 38 36 42 52 66 74 68 64 62 58 53 44 35 30 31 39 42 38 28 16 10 10 12 12 12 13 14 18 20 19 16 14 19 28 34 32 26 21 20 20 18 14 12 10 7 13 22 23 22 16 11 12 15 18 24 21 13 10 11 11 10 11 11 11 11 12 11 10 8 8 7 7 8 9 9 7 6 6 6 6 6 7 7 7 8 9 9 7 6 6 6 6 7 8 7 7
38 35 36 41 47 61 71 67 67 65 60 57 48 40 37 40 45 47 49 43 24 13 11 11 11 12 11 13 17 21 23 22 17 14 14 18 19 16 14 15 15 14 12 10 9 8 15 25 25 21 15 10 12 16 20 25 25 18 10 9 10 10 10 10 10 11 11 12 10 7 7 7 6 7 8 7 7 6 6 6 6 7 8 8 9 10 10 8 7 7 6 7 7 7 7 7 7
33 33 37 40 42 55 67 65 64 61 58 60 53 46 50 53 52 52 60 61 43 24 14 12 12 12 12 13 17 20 25 27 26 22 14 10 10 10 10 12 12 11 12 10 8 9 16 26 26 20 13 9 12 17 23 26 26 23 15 10 9 9 9 9 10 10 11 12 11 8 6 6 7 6 6 6 6 6 6 7 8 9 11 11 11 10 10 8 6 7 8 9 9 9 8 7 7
33 34 34 35 38 49 61 59 58 54 52 61 58 51 60 66 61 60 68 74 67 47 28 18 14 12 12 13 15 19 23 28 31 29 22 13 7 9 9 11 12 10 12 10 8 11 18 27 26 20 13 9 11 17 22 24 25 25 19 13 9 9 10 10 11 10 10 11 10 8 7 6 6 6 6 6 6 6 7 8 10 11 11 12 11 10 10 8 8 10 12 14 15 15 13 10 9
30 29 29 33 36 45 54 54 56 51 47 59 61 57 65 69 64 65 71 77 77 66 47 33 21 13 11 11 13 16 20 24 27 27 26 18 10 9 10 12 13 11 12 9 8 13 22 27 24 19 15 10 10 16 21 21 23 23 20 16 12 10 10 11 11 10 9 9 9 8 7 7 6 6 6 6 7 8 9 10 10 10 10 10 10 11 10 9 12 15 16 19 20 18 16 13 11
20 22 30 36 36 46 55 52 52 49 44 54 63 64 65 66 66 68 74 80 78 69 60 50 34 19 12 10 11 13 16 21 25 28 28 22 15 11 12 15 13 12 12 8 9 16 23 25 21 19 17 12 10 14 18 19 20 21 20 16 14 12 11 11 11 9 8 7 8 8 7 7 6 7 7 7 8 8 9 9 9 9 10 11 10 11 11 12 14 16 17 19 18 16 14 11 10
12 17 26 30 31 43 56 53 50 48 44 49 63 67 63 65 70 72 77 83 80 71 64 60 50 35 21 11 10 11 13 17 25 34 35 27 21 16 16 16 13 13 11 7 11 19 23 22 19 19 16 13 11 13 16 17 18 19 19 17 15 13 12 11 10 7 7 7 8 8 8 7 7 8 8 8 9 9 10 10 11 11 12 14 12 11 12 12 14 16 17 19 20 20 18 15 12
9 13 19 23 26 37 52 55 49 46 43 45 58 68 68 70 72 73 78 83 83 73 61 58 58 48 31 16 12 12 11 13 20 32 37 32 28 24 22 18 13 13 10 8 15 21 22 18 15 15 14 12 11 10 11 13 16 17 17 16 14 13 11 10 8 6 6 7 8 9 8 7 8 8 8 9 10 11 13 13 14 15 15 16 13 12 12 13 14 17 20 25 30 32 32 30 26
7 9 14 21 29 38 51 54 45 42 43 44 51 65 75 76 72 72 77 82 80 69 55 54 58 52 40 26 18 16 14 12 15 26 34 33 31 29 26 19 13 12 8 9 18 23 21 17 13 11 11 10 8 6 6 8 11 14 13 11 10 10 9 7 6 5 6 8 9 9 8 8 8 8 9 12 13 14 16 16 17 17 15 15 14 14 14 15 18 22 28 35 40 43 43 42 40
5 8 10 19 30 39 50 51 43 44 45 43 47 62 75 77 74 72 73 79 79 72 64 61 59 53 46 38 30 27 20 12 13 22 29 31 31 29 25 17 12 11 8 11 21 22 19 17 14 12 9 7 6 5 5 4 6 8 7 6 6 7 6 5 5 5 7 9 9 8 8 8 8 9 13 16 16 17 19 19 18 17 16 15 16 16 17 20 24 30 36 41 46 48 44 40 39
5 7 9 16 22 31 49 50 44 49 48 43 44 53 69 76 76 72 67 74 81 81 77 67 60 54 46 44 45 39 26 14 12 17 24 28 27 25 20 14 12 10 7 13 21 20 17 15 13 11 8 6 6 5 4 4 4 4 4 4 4 5 5 5 5 6 8 8 8 8 8 8 9 13 17 18 19 20 22 22 20 18 17 17 18 19 22 26 30 35 40 43 46 44 36 30 29
4 6 8 11 12 21 41 45 46 55 50 45 44 45 60 72 74 70 64 71 80 81 80 69 56 47 40 43 51 45 28 17 11 12 20 24 23 19 15 12 12 9 8 15 20 16 15 13 11 9 8 6 5 4 4 3 3 3 4 4 4 5 4 5 5 6 7 7 7 8 9 10 12 16 19 19 20 21 23 25 22 19 19 19 20 23 26 30 32 37 41 42 40 35 29 25 21
3 5 4 5 9 14 27 39 50 59 49 43 46 42 51 67 72 68 63 67 75 77 78 69 52 42 39 40 45 37 23 15 11 10 16 22 20 16 13 13 12 9 9 15 18 15 14 13 10 10 8 6 4 4 4 3 3 3 3 4 4 4 5 5 5 6 6 7 8 10 13 15 17 20 21 21 21 21 23 25 23 19 19 21 24 28 31 32 33 35 38 38 34 29 27 24 19
3 4 3 3 8 9 18 34 43 51 48 44 45 40 45 61 70 68 64 63 69 73 74 69 57 46 39 39 39 30 17 13 11 9 11 19 21 15 13 14 13 9 9 14 17 15 14 11 9 9 6 5 4 3 3 3 3 4 4 4 4 5 5 5 5 5 6 7 10 15 18 20 21 23 25 25 25 23 23 24 23 19 18 23 30 34 35 33 30 30 31 33 30 26 25 23 19
3 4 3 3 5 6 14 24 30 43 55 53 47 41 39 51 64 69 66 62 65 70 70 69 66 52 38 39 41 34 24 16 12 10 8 13 20 17 14 14 13 11 10 13 15 13 11 8 6 6 5 5 4 3 3 3 4 4 4 4 4 5 5 5 5 5 6 8 14 19 19 18 20 23 25 26 26 26 24 23 23 19 17 27 36 38 35 30 26 24 25 27 26 23 22 20 18
3 3 3 4 3 5 8 14 23 38 55 60 46 33 32 41 57 67 66 63 66 69 66 67 66 55 42 40 37 33 29 22 15 12 8 8 15 19 17 14 13 13 12 13 12 10 8 6 5 5 4 4 4 3 3 3 3 3 4 4 4 5 4 5 5 6 8 12 17 18 15 15 19 24 26 25 24 24 24 23 23 19 17 29 40 36 30 25 23 23 22 23 22 21 20 19 18
3 3 3 4 3 4 4 9 19 27 44 55 35 22 27 31 45 59 60 62 68 66 61 64 65 58 54 49 39 33 32 26 18 14 11 8 9 15 19 17 14 12 13 12 11 9 7 5 5 4 4 4 3 3 3 3 4 3 4 4 4 4 4 5 6 7 10 13 15 14 12 15 22 28 28 27 25 23 23 22 22 20 17 28 39 32 26 24 23 23 22 20 20 20 19 19 18
3 3 3 4 3 4 3 6 13 18 29 35 22 20 24 18 27 44 45 53 67 65 59 63 66 63 64 60 49 39 31 23 17 14 14 11 7 8 13 16 14 11 11 11 9 8 6 5 4 4 3 3 3 3 3 3 3 3 4 4 4 4 5 6 7 8 11 12 13 12 12 16 24 29 28 27 27 24 23 21 21 21 17 25 36 32 26 25 24 24 22 19 19 19 18 17 18
3 3 3 4 3 4 4 4 7 12 15 13 11 16 14 6 15 31 32 39 56 63 60 64 68 67 68 67 59 49 32 18 15 14 14 13 10 7 7 10 10 9 9 8 6 5 5 4 4 4 4 3 3 3 3 3 3 4 4 4 4 5 5 6 7 9 11 12 12 12 13 16 21 25 24 25 28 27 26 21 19 20 17 21 33 34 28 26 26 25 20 18 19 17 16 19 25
2 3 3 4 4 3 4 3 4 8 7 4 6 10 10 4 8 22 26 28 45 61 64 67 70 70 73 73 68 58 40 24 17 15 14 13 11 7 5 6 6 6 6 5 4 4 4 4 4 4 4 4 4 3 3 4 3 4 4 4 5 5 6 7 7 9 10 11 12 12 13 15 17 19 20 22 26 30 30 25 20 18 17 18 27 34 32 28 28 24 19 19 18 16 21 29 34
3 3 2 3 4 3 3 3 3 4 3 2 4 7 10 5 5 18 23 25 44 63 68 70 72 73 76 78 73 61 50 38 24 16 13 10 8 7 5 4 4 4 4 4 4 4 4 4 4 4 4 4 4 4 4 4 4 4 4 4 5 5 6 6 7 8 9 10 11 12 12 12 12 13 15 17 23 30 33 30 24 18 16 16 21 31 34 32 29 23 19 19 17 20 30 36 36
3 3 3 2 3 3 3 3 3 2 2 3 3 4 6 3 5 18 21 25 46 65 70 72 73 73 75 79 78 66 57 50 35 23 17 9 8 8 6 5 4 3 3 3 4 4 4 4 4 4 3 3 4 4 4 4 4 4 4 5 5 5 6 6 7 7 8 9 9 9 9 9 9 10 11 13 20 31 36 35 30 21 17 15 18 26 33 33 29 22 19 18 18 25 33 34 32
5 3 3 2 2 2 2 2 2 2 2 2 2 3 3 1 4 14 20 25 40 59 69 71 73 74 74 79 80 68 62 57 43 31 22 13 9 9 7 6 4 3 3 3 3 4 4 4 4 4 3 3 3 3 4 4 4 4 4 5 5 5 5 6 6 6 7 7 7 8 8 7 8 9 10 12 21 32 37 38 35 26 19 16 17 23 29 31 27 21 19 19 21 29 33 30 29
6 5 4 3 3 2 2 2 2 2 2 3 2 2 2 2 2 6 16 22 31 51 67 72 74 75 76 78 74 63 58 53 43 33 23 16 12 9 9 7 5 5 3 3 3 3 3 3 3 3 3 3 3 3 3 3 4 4 4 5 4 5 5 5 6 6 6 6 6 7 7 7 7 9 11 14 22 32 36 38 38 31 23 18 17 21 27 29 25 20 19 20 25 32 33 30 28
7 6 5 4 3 3 3 2 2 2 3 2 2 2 2 3 3 4 12 20 28 48 68 73 75 76 76 73 65 59 58 53 45 36 27 21 17 11 8 7 6 5 4 4 4 3 4 3 3 3 3 3 3 3 3 3 4 4 4 5 5 5 5 5 5 5 5 6 6 6 6 7 7 10 12 12 19 30 35 38 39 34 26 19 17 21 27 27 23 20 20 22 28 35 33 30 27
8 7 6 5 4 4 3 3 3 3 3 2 2 3 2 2 3 4 11 20 27 45 65 71 73 75 74 70 64 60 59 55 51 45 35 28 23 16 11 8 7 5 4 5 5 5 5 4 3 3 3 3 3 3 3 3 3 4 4 5 5 5 5 5 5 5 6 6 6 6 6 7 8 9 11 11 16 27 35 39 40 36 29 21 18 21 27 27 22 19 20 23 32 36 32 28 25
10 9 7 6 5 4 4 3 3 3 3 3 3 2 3 2 2 3 8 17 23 34 50 62 68 73 72 70 67 62 59 60 62 58 46 33 25 20 15 10 8 6 6 6 6 6 6 6 5 4 3 3 3 3 3 3 4 4 4 5 5 5 5 5 5 5 7 7 7 8 7 7 7 9 12 13 15 24 34 40 42 39 32 24 19 21 27 28 21 20 21 24 33 35 29 27 25
11 10 8 7 6 5 5 4 4 4 3 3 3 3 3 2 3 3 6 13 20 30 44 55 62 68 69 70 69 64 61 61 65 64 56 45 38 34 28 21 15 9 7 6 7 7 7 7 6 5 4 4 3 4 4 4 4 4 4 5 5 5 5 5 5 5 7 7 7 7 7 8 8 9 12 15 17 24 33 41 44 43 37 28 21 21 27 30 23 20 21 24 33 34 29 28 25
11 10 9 7 6 6 5 5 4 4 4 3 3 3 3 3 3 3 3 7 14 25 38 47 56 63 68 70 70 68 64 62 65 68 66 63 59 53 49 44 35 24 15 10 8 7 8 8 6 4 4 4 4 4 4 4 4 4 5 5 5 6 5 5 5 5 6 6 5 6 6 6 7 8 10 15 19 22 30 40 46 47 42 33 24 21 27 30 25 21 21 24 32 34 32 31 29
11 10 9 7 7 6 6 5 5 4 4 4 3 3 3 3 3 3 3 4 6 12 22 33 46 59 68 71 72 71 68 66 68 71 71 72 70 68 66 63 57 46 31 18 11 9 9 7 6 5 4 5 5 5 6 7 7 8 8 8 8 8 8 8 8 7 6 6 6 6 6 6 7 8 9 13 18 20 28 39 47 48 46 38 28 22 26 31 27 23 22 23 29 33 33 33 34
12 11 10 9 7 7 6 5 5 5 4 4 4 4 3 3 3 3 3 3 3 6 13 23 37 54 66 72 73 72 71 68 69 72 73 74 73 71 69 68 67 62 50 33 19 12 11 8 7 7 8 10 11 11 12 13 15 17 20 21 21 21 21 21 20 18 16 13 11 9 9 9 9 10 11 12 15 19 27 38 47 50 49 42 32 24 26 31 30 25 23 23 28 31 32 35 41
Wind_Speed
11 11 11 10 11 13 12 12 11 11 12 13 12 10 10 10 10 12 12 12 12 12 12 13 14 14 12 12 12 12 12 12 12 12 12 12 14 16 19 18 15 14 13 12 11 11 11 11 10 9 9 9 10 11 12 13 13 13 12 11 10 11 12 12 13 13 13 13 13 13 13 13 13 13 13 12 12 11 11 10 10 9 9 9 8 7 7 7 8 9 9 8 7 7 7 7 8
10 11 11 10 10 11 10 10 10 11 13 13 11 11 11 11 10 11 11 12 12 11 12 12 13 14 14 13 13 13 11 11 11 13 14 15 16 16 17 18 17 15 13 12 12 12 11 11 10 9 9 9 10 10 11 12 13 13 11 10 10 11 12 12 12 12 13 13 13 13 13 13 13 13 12 12 12 11 10 9 9 9 9 9 8 8 7 7 8 8 8 8 7 6 6 6 6
9 11 11 11 11 11 10 9 9 12 12 10 11 11 11 10 10 9 10 11 11 11 11 11 12 13 14 14 13 12 10 10 12 14 15 16 17 16 15 17 17 15 14 12 12 12 12 11 10 10 10 10 10 10 11 11 12 12 10 10 10 11 12 12 12 12 13 13 14 13 13 13 12 12 12 12 11 11 10 9 9 8 8 8 8 8 7 7 8 8 7 7 6 6 5 5 6
8 9 10 10 11 11 10 8 7 9 10 9 10 10 10 9 8 8 7 8 10 10 10 11 11 12 13 13 12 11 10 10 12 13 13 14 16 16 15 16 16 14 13 11 12 12 11 11 11 11 10 10 9 10 11 11 12 11 10 10 11 12 12 13 13 13 13 14 13 13 12 12 12 11 11 11 11 10 10 9 9 8 8 8 7 7 7 7 8 7 7 6 6 5 5 5 5
7 7 8 9 10 11 10 9 8 7 7 7 7 8 8 8 7 7 7 7 8 9 10 10 9 10 11 11 11 11 11 11 12 13 12 12 13 15 15 15 15 13 11 10 10 10 10 11 12 11 10 9 9 10 11 11 11 11 10 11 12 12 13 13 13 13 13 13 13 12 12 11 11 11 11 10 10 9 9 9 9 9 8 8 7 7 7 7 7 6 6 5 5 5 5 5 5
7 5 6 7 8 10 9 8 8 6 5 4 4 6 6 7 7 7 7 7 8 9 9 9 9 9 10 10 10 10 10 10 11 12 12 11 11 13 15 15 14 13 10 9 9 9 10 11 11 11 9 9 10 11 11 11 11 11 11 11 12 13 13 13 13 13 13 12 11 11 11 11 11 11 10 10 9 9 9 9 9 8 8 8 8 8 8 7 7 6 5 4 4 3 3 4 4
8 6 6 6 8 9 8 8 6 4 4 2 2 2 3 5 6 6 6 7 7 8 9 9 9 9 9 10 10 10 9 10 10 10 11 11 12 12 14 15 14 12 10 9 8 8 9 10 10 9 9 10 10 10 10 11 11 12 12 12 13 13 13 13 12 13 12 11 11 11 11 11 10 10 10 9 9 9 9 9 8 7 7 7 7 8 8 8 8 7 6 5 4 3 2 2 3
7 6 6 6 7 8 8 6 4 3 3 2 2 2 2 3 4 5 5 6 7 8 8 10 10 10 10 10 10 10 9 9 9 10 10 10 12 12 13 14 14 12 10 9 8 8 8 9 9 8 9 10 10 10 10 11 12 12 12 12 13 13 13 12 12 12 12 12 12 12 12 12 11 10 10 10 9 9 10 9 8 7 6 6 7 7 8 8 7 7 5 5 4 3 2 1 1
7 6 5 5 6 7 6 4 3 2 2 3 3 3 3 2 3 4 5 6 6 7 8 9 10 10 10 10 9 10 10 9 8 9 9 9 11 11 11 12 12 12 10 9 8 7 8 8 8 8 9 10 10 10 10 11 12 12 12 13 13 13 12 12 12 13 13 13 14 14 14 14 13 13 12 12 12 12 11 10 9 9 9 8 8 8 7 7 7 6 6 5 4 3 2 2 1
7 6 6 6 7 7 6 4 3 3 3 3 4 4 4 3 3 4 5 6 6 7 8 8 8 9 9 9 8 10 10 8 8 9 8 8 9 9 9 9 9 10 10 8 7 7 7 7 8 9 9 9 10 10 11 11 12 12 13 13 13 13 12 13 13 14 14 15 16 16 17 16 16 15 15 15 15 15 14 13 13 12 12 12 12 11 10 10 9 9 8 8 7 6 5 4 3
8 7 5 6 6 7 7 5 4 4 4 4 4 4 5 5 4 5 6 6 6 7 7 7 8 8 8 8 8 10 10 9 9 9 8 7 7 8 7 7 7 7 9 8 7 6 6 7 8 9 9 10 10 10 11 11 12 12 13 13 13 13 13 13 14 15 16 17 17 18 18 17 17 17 17 17 17 17 16 15 15 15 15 15 14 14 13 12 12 11 11 11 10 9 7 7 5
8 8 6 6 7 8 9 6 4 4 4 5 5 5 5 5 5 5 6 6 6 7 8 8 8 7 7 7 8 9 10 11 11 10 8 7 7 7 6 6 6 6 8 8 7 5 5 7 8 10 10 10 11 11 11 11 12 13 13 13 13 14 14 15 15 16 17 18 18 18 18 18 18 18 17 17 17 17 17 16 16 16 16 16 15 15 14 14 13 13 12 12 11 10 9 9 8
9 8 7 7 7 8 10 7 5 4 5 5 5 5 5 5 5 5 6 6 7 7 8 8 8 8 7 7 7 8 10 11 11 11 9 7 7 6 6 5 5 6 7 7 6 5 5 7 9 10 11 11 11 11 11 11 12 13 13 13 14 14 15 16 16 17 18 18 18 18 18 18 17 17 17 17 17 17 17 16 16 16 16 16 16 16 15 15 14 14 13 12 12 11 11 10 10
9 9 8 8 8 8 8 7 5 5 6 7 6 5 5 5 6 6 6 6 7 7 8 8 9 9 9 8 7 7 10 11 11 11 10 8 7 6 5 4 5 5 6 7 6 4 5 7 9 11 12 12 12 11 11 12 12 13 13 14 14 15 16 17 17 17 18 18 18 18 17 17 17 16 16 16 16 17 17 16 16 16 16 16 16 16 16 15 15 15 14 13 13 12 11 11 11
10 10 9 9 9 7 6 6 6 6 7 7 7 6 6 6 7 8 7 7 7 7 8 8 9 10 10 10 9 7 8 10 11 11 10 9 7 6 5 4 4 5 6 6 5 5 5 7 9 11 12 12 12 11 11 12 13 13 14 14 15 16 17 17 18 18 18 18 17 17 16 16 16 15 15 15 16 16 16 16 16 16 16 16 16 15 15 15 16 15 15 14 13 12 12 11 11
11 10 10 11 10 8 7 7 6 6 7 8 7 7 6 6 7 9 9 9 8 8 8 9 10 10 11 12 12 9 8 9 11 11 11 10 8 6 5 4 4 4 4 4 4 5 6 7 9 11 13 13 12 12 12 12 13 13 14 15 16 17 18 18 18 17 17 17 16 16 16 16 15 15 15 15 15 15 15 15 15 16 16 16 15 14 14 15 15 15 15 15 14 13 12 11 10
12 11 11 11 10 9 9 8 7 7 7 7 7 7 7 6 7 9 10 10 10 10 10 10 10 10 11 12 13 12 9 8 9 11 11 10 9 7 6 4 3 3 3 3 4 5 7 8 10 12 13 13 12 12 12 12 13 14 15 16 17 17 18 18 17 17 16 16 16 16 15 15 15 14 14 15 15 15 14 14 15 15 15 15 14 13 13 14 14 14 14 14 14 14 13 12 11
13 12 11 11 11 10 9 9 9 7 6 7 7 8 8 8 8 9 10 10 11 11 11 10 10 10 11 12 13 13 12 9 8 11 11 10 9 8 6 5 3 2 2 3 4 6 7 9 11 13 13 13 13 12 13 13 13 14 15 16 17 18 18 18 17 16 16 15 15 15 15 15 14 14 14 14 14 14 14 14 14 14 14 13 13 12 12 12 12 13 13 13 13 13 13 13 12
14 13 12 11 11 10 8 9 10 8 8 8 8 8 8 8 9 9 10 10 11 12 12 11 10 10 11 11 13 13 13 12 9 10 11 11 9 8 6 4 3 2 2 2 4 6 8 10 12 13 14 13 13 13 13 13 13 14 15 17 17 18 18 17 16 15 15 15 14 14 14 14 13 13 13 13 13 13 13 13 13 12 12 12 11 11 11 11 11 11 11 11 12 11 12 13 13
14 13 13 12 12 10 10 10 10 9 9 9 7 7 8 8 9 10 10 10 10 11 12 11 10 11 11 11 12 12 12 13 11 9 10 10 9 7 5 4 3 2 1 2 4 6 9 11 13 14 14 13 13 13 14 14 14 15 16 17 17 17 17 16 15 15 14 14 14 13 13 13 12 12 12 12 12 11 12 12 11 11 11 11 10 10 10 10 10 10 10 9 10 10 11 12 12
15 15 14 12 12 11 11 11 10 10 10 9 7 7 7 7 10 11 10 10 9 10 11 11 11 10 10 10 11 11 11 12 13 11 10 10 9 7 6 4 3 2 2 3 4 6 9 12 14 15 14 13 13 13 14 14 15 15 16 17 17 17 17 16 15 14 13 13 13 12 12 12 11 11 11 11 11 11 11 10 10 10 10 10 9 9 9 9 9 9 8 8 9 10 10 10 10
16 15 14 13 13 12 12 12 11 10 10 9 8 7 7 8 10 11 11 10 9 10 10 11 11 10 10 9 9 10 10 11 12 12 12 11 10 9 8 6 4 4 4 4 5 7 10 13 15 15 15 14 13 14 14 15 15 16 16 17 17 16 16 15 14 13 12 12 11 11 11 11 10 10 10 10 10 10 10 9 9 9 9 8 8 8 8 8 8 8 8 8 8 9 8 8 9
16 15 14 15 15 14 13 12 11 11 10 9 8 8 7 8 9 10 12 11 9 10 10 10 10 10 10 9 9 9 10 11 11 11 12 12 12 11 10 8 7 6 4 5 6 8 10 13 16 16 15 14 14 14 14 15 15 16 16 17 16 16 15 15 13 12 12 11 10 10 9 10 10 10 10 10 9 9 9 9 9 8 8 8 7 7 7 7 7 7 7 7 8 8 7 7 7
15 15 15 16 16 15 13 12 11 11 10 9 9 8 7 8 8 8 10 10 9 10 11 10 10 10 9 8 9 9 10 11 12 12 12 13 12 12 11 10 9 7 5 6 7 10 12 14 16 16 15 15 15 15 15 15 16 16 17 17 16 16 15 14 13 12 11 10 9 9 9 9 9 9 9 9 9 9 9 8 8 8 7 7 6 6 6 6 6 6 7 7 8 7 7 7 6
15 15 16 16 16 16 13 13 12 10 10 10 9 8 8 8 8 7 7 7 9 10 11 11 10 9 8 7 7 8 9 11 13 13 13 13 13 12 11 10 9 7 7 7 8 11 13 15 16 17 16 16 15 15 16 16 16 16 16 17 16 15 14 13 12 11 10 10 9 8 8 8 8 8 8 8 8 8 8 8 7 7 6 5 5 5 5 6 6 6 6 7 7 7 7 7 6
17 18 18 17 17 16 15 14 12 10 9 9 8 8 8 8 8 7 6 6 8 8 9 10 10 9 7 7 6 6 7 9 12 13 14 14 14 13 12 11 10 9 8 8 9 12 14 16 16 16 16 16 16 16 16 16 16 16 16 16 16 15 14 13 11 10 10 9 8 8 7 7 7 7 7 7 7 7 7 6 6 6 5 4 4 4 5 5 5 6 6 7 7 6 6 6 6
19 19 18 17 16 16 17 15 10 9 8 7 7 8 8 8 7 6 5 5 6 7 8 9 9 8 7 6 6 5 5 6 9 12 13 14 14 14 13 13 12 10 10 10 11 13 15 16 16 16 16 16 17 16 16 15 15 16 16 16 15 15 13 12 11 10 9 8 8 7 7 7 7 6 6 6 6 6 6 5 5 4 4 3 3 4 4 5 5 5 6 6 6 5 5 5 4
21 21 18 17 17 17 19 16 11 8 8 7 7 7 7 8 7 6 4 3 4 5 6 7 8 8 6 5 6 5 4 5 8 11 13 14 14 14 14 14 13 12 12 12 13 15 16 17 17 16 16 16 17 16 16 15 15 16 16 16 15 14 13 12 11 10 9 8 7 7 6 6 6 6 5 5 5 5 4 4 3 3 3 2 3 3 3 4 4 5 5 5 5 5 5 4 3
23 22 19 18 18 18 20 19 14 9 9 8 7 8 8 8 8 7 6 5 3 4 4 5 6 7 6 5 5 6 5 5 7 9 11 12 13 13 14 14 13 13 12 13 14 16 18 18 17 17 16 16 17 16 16 16 15 16 15 15 15 14 13 12 11 10 9 8 7 6 6 6 5 5 5 5 5 4 4 3 3 2 2 3 3 3 3 3 4 4 5 6 6 6 5 4 4
24 22 20 20 19 18 20 21 17 12 11 10 9 11 9 7 9 9 9 8 5 4 4 4 5 6 6 6 5 6 6 5 6 7 8 10 12 13 13 13 13 12 11 13 15 18 18 18 17 17 17 17 16 16 16 16 16 16 15 15 15 14 13 12 11 10 9 8 7 7 6 6 5 5 5 5 4 4 3 2 2 2 3 3 4 3 3 3 3 4 6 6 7 7 6 6 5
25 23 22 21 20 20 21 20 17 13 13 12 12 13 9 7 11 12 11 11 8 5 5 4 4 5 6 6 5 5 6 6 6 7 8 10 12 12 13 13 13 12 11 14 17 19 19 19 18 17 17 17 17 17 17 17 16 16 15 15 15 14 13 12 11 10 9 9 8 7 7 6 6 6 5 5 4 3 2 2 2 2 3 3 4 4 3 3 4 5 7 7 8 9 8 8 7
27 25 21 20 20 21 21 20 17 15 14 13 13 15 12 10 14 14 12 13 10 8 6 4 4 4 5 5 5 4 5 6 8 8 9 11 12 13 14 14 13 13 14 15 18 19 20 19 19 18 17 17 18 17 17 16 16 16 15 15 14 14 13 12 11 10 10 10 9 8 8 7 7 6 6 5 4 2 1 1 2 2 3 3 4 3 3 3 4 5 7 8 9 10 9 9 8
28 25 22 22 21 22 22 21 19 17 15 14 15 18 16 13 15 15 13 13 11 10 9 6 5 4 4 5 4 4 4 5 7 8 9 11 13 14 15 15 14 14 15 16 18 20 20 20 19 18 18 18 18 17 17 16 16 15 15 14 14 14 14 13 12 11 11 10 10 9 9 8 8 7 6 5 3 2 1 1 2 3 3 3 3 2 2 2 3 5 7 8 9 9 9 9 9
27 25 25 24 22 23 24 23 21 19 17 15 16 20 19 15 16 16 14 13 12 12 11 10 8 5 5 5 4 4 3 3 5 6 8 11 13 14 15 15 14 14 15 17 19 20 20 19 19 18 18 17 17 16 16 16 15 15 14 14 14 14 14 13 13 12 11 11 10 10 9 8 8 7 5 4 3 2 1 2 2 3 3 3 2 2 1 2 4 5 6 7 8 8 8 8 9
25 25 26 24 21 22 24 25 23 21 19 17 18 21 21 18 18 18 16 15 14 14 14 13 10 8 6 5 5 4 4 3 4 5 7 10 13 14 15 14 14 14 16 18 20 19 18 18 17 17 17 16 16 15 15 15 15 14 14 14 15 15 15 14 13 13 12 11 11 10 9 8 7 6 5 4 3 2 2 3 3 3 3 3 1 1 1 2 3 5 6 7 7 8 8 9 10
25 24 26 26 23 23 26 28 26 22 20 18 18 22 24 23 21 20 19 17 16 15 15 14 12 10 8 7 6 4 4 4 5 6 7 10 12 13 14 14 14 15 16 19 20 18 17 16 16 16 15 15 14 14 14 14 15 15 15 15 16 16 15 14 13 13 12 12 11 11 10 8 7 6 5 4 3 3 3 3 4 4 4 3 3 2 2 2 4 5 7 8 9 9 9 10 10
25 22 23 24 26 27 29 30 28 24 22 20 19 24 28 25 24 23 21 19 17 15 15 15 14 12 11 9 7 5 4 4 6 8 9 10 11 12 13 14 14 15 17 20 19 17 16 15 15 15 14 14 13 14 15 16 16 17 16 16 16 15 14 13 13 13 12 12 12 11 10 8 7 6 6 4 4 3 3 3 4 4 4 4 4 4 3 3 4 6 8 9 10 10 10 10 10
25 24 23 24 27 28 30 33 30 26 26 23 21 24 28 28 27 26 24 21 19 17 16 16 16 15 13 11 9 7 6 5 6 9 11 12 12 12 12 13 15 15 18 20 19 18 16 16 16 15 15 14 15 15 16 17 17 16 15 14 14 13 13 12 12 12 12 12 12 11 9 8 8 7 6 4 3 2 2 3 4 4 4 4 4 4 4 4 5 7 8 9 9 9 10 10 10
28 28 28 26 24 27 32 34 30 29 29 26 24 24 28 31 31 29 26 24 22 20 19 18 19 18 16 14 12 10 8 7 7 8 11 14 14 13 13 14 16 17 20 21 19 18 17 16 16 15 15 15 16 16 16 16 16 14 13 12 12 12 12 12 12 12 13 13 12 11 9 8 8 7 5 4 3 1 1 2 3 3 3 3 3 3 3 4 6 7 8 8 9 9 9 9 10
31 31 30 23 22 26 30 31 32 33 33 29 27 26 28 32 33 30 28 26 25 23 22 21 21 19 17 16 14 12 10 9 8 8 10 13 14 15 14 15 17 18 20 21 19 18 17 17 17 16 16 16 16 16 16 15 14 13 12 12 13 13 13 13 14 15 15 14 13 11 10 9 8 6 5 3 2 1 1 2 3 2 1 2 2 3 3 5 6 7 8 8 8 8 8 8 9
30 30 28 24 26 27 27 33 37 36 34 31 29 28 28 33 34 31 30 30 28 25 24 23 20 19 18 17 15 13 12 10 9 8 10 12 15 16 16 17 17 19 21 21 20 20 19 18 18 18 18 18 17 16 16 14 13 13 13 14 14 14 15 16 17 17 16 15 13 11 10 8 7 5 3 2 1 1 2 2 2 1 1 1 2 3 4 5 6 6 6 7 7 7 7 7 8
28 28 26 27 29 29 29 35 36 34 35 34 33 33 31 32 33 33 33 32 30 28 26 23 21 20 19 18 17 15 14 12 11 9 10 12 14 16 16 17 18 20 21 21 21 21 20 20 20 20 19 18 18 16 15 15 15 15 16 16 17 17 18 18 17 15 14 12 11 11 9 7 5 4 2 1 1 2 3 3 2 1 1 1 2 3 4 5 5 5 6 6 6 6 7 7 8
29 28 28 30 31 31 31 31 31 34 37 37 38 36 31 32 35 37 36 33 32 31 27 24 23 22 20 19 19 18 17 15 13 11 10 11 14 15 16 17 19 20 21 22 22 21 21 21 21 20 20 19 18 17 16 16 17 17 18 18 19 19 18 16 13 12 12 11 11 10 8 7 5 3 1 1 2 3 4 4 3 2 2 2 2 3 4 4 5 5 5 6 6 6 7 8 9
27 28 31 31 31 32 31 29 32 35 38 41 41 34 32 35 38 39 38 35 34 34 29 25 24 22 19 18 18 18 18 17 16 14 12 11 13 16 17 18 20 21 22 22 22 22 22 22 21 21 20 19 18 18 18 18 18 19 19 19 19 19 17 14 12 12 13 13 12 10 8 7 5 2 0 1 2 3 4 4 4 3 3 2 3 4 3 4 5 6 7 7 7 7 7 9 10
25 28 30 31 31 33 32 33 36 35 39 44 40 34 35 35 36 39 40 37 37 35 29 26 25 23 20 19 18 18 19 19 18 16 14 12 13 16 19 20 21 21 21 22 22 22 22 21 21 20 20 19 19 19 19 20 20 20 19 19 19 18 15 14 14 14 15 14 12 10 8 7 5 2 1 2 3 4 4 5 5 4 4 3 3 4 3 3 5 7 9 9 8 8 9 10 10
26 26 28 32 35 35 36 38 38 38 42 44 39 37 36 29 30 39 42 41 40 35 30 28 27 24 22 20 18 18 19 19 19 18 17 14 13 15 18 19 21 21 21 22 22 21 21 20 20 19 19 19 20 21 21 21 20 20 19 19 19 17 15 15 16 16 16 14 12 10 9 7 5 3 2 2 4 5 5 5 5 5 5 4 4 4 4 4 6 8 9 9 9 9 10 10 10
29 26 28 35 39 39 41 41 40 43 45 42 38 37 38 29 27 38 43 41 39 35 31 31 29 26 24 22 20 19 18 18 19 19 19 18 16 16 17 18 18 19 20 21 21 20 20 20 19 19 19 20 20 21 21 21 21 20 20 19 19 17 17 17 17 17 17 15 13 11 10 8 7 5 4 4 4 5 6 6 6 6 5 5 5 5 5 6 8 9 9 8 9 10 9 8 8
30 27 30 36 39 41 43 42 42 43 41 39 36 36 40 31 23 33 41 38 37 35 33 32 30 28 25 23 22 20 18 18 19 19 20 20 19 17 17 17 18 18 19 20 20 20 19 19 19 19 19 19 20 21 21 21 21 21 20 20 19 19 18 18 19 18 18 16 14 12 11 9 9 8 7 5 5 5 7 7 7 6 6 6 7 7 7 7 9 10 9 8 9 9 8 7 7
31 30 33 35 37 39 40 40 40 38 35 37 36 35 39 26 17 29 38 37 38 36 34 34 31 30 28 25 24 22 20 20 19 19 19 20 19 18 17 18 18 19 20 20 20 20 20 20 20 20 20 20 21 21 21 21 21 21 21 21 21 20 20 20 19 19 18 17 15 14 12 12 11 10 8 7 5 5 6 8 7 7 7 7 8 8 8 9 10 10 8 8 9 8 7 7 7
30 31 32 31 32 33 34 35 35 33 33 36 35 34 33 23 17 26 30 33 38 36 35 35 32 31 29 27 26 24 23 22 21 21 21 20 20 20 20 19 19 20 21 22 22 22 22 22 22 22 22 22 22 22 21 21 21 21 22 21 21 21 21 21 20 19 19 18 16 15 15 14 13 11 10 8 6 6 7 8 8 8 8 8 8 9 9 10 10 10 8 8 8 8 7 7 7
29 29 30 30 31 31 30 31 31 31 34 37 34 29 25 22 20 21 22 28 36 36 36 35 34 32 31 30 28 27 26 24 23 22 21 21 21 22 22 22 21 21 22 23 23 24 24 24 24 23 23 23 23 22 22 22 22 22 22 21 21 21 22 22 21 20 19 19 18 17 16 16 15 13 11 9 8 8 8 8 8 8 8 8 9 9 10 10 10 9 8 8 7 7 8 7 7
30 30 32 31 30 28 27 29 30 32 36 35 27 20 19 20 16 15 22 30 34 36 37 36 35 33 32 32 30 28 26 25 23 22 21 20 21 22 23 23 23 23 23 23 23 23 24 24 24 24 24 24 24 24 23 23 23 23 22 21 21 21 21 22 22 22 21 21 19 18 18 18 17 14 12 10 9 10 9 9 9 9 9 9 10 10 10 11 11 9 8 8 7 7 8 8 7
33 34 31 26 25 27 28 31 32 32 33 32 23 16 17 19 14 14 23 30 32 37 38 36 35 34 34 33 30 28 27 24 22 21 21 21 21 21 22 23 24 24 24 23 22 23 23 24 24 25 25 24 24 24 24 24 23 23 22 21 21 21 21 21 22 22 22 21 20 19 19 19 18 16 14 12 12 12 11 10 11 11 10 10 11 11 11 11 11 10 8 8 7 8 8 7 7
38 36 29 26 30 32 32 33 33 31 32 30 23 16 16 17 15 16 22 27 30 36 38 37 36 36 36 34 31 29 27 24 22 21 21 21 20 19 19 21 23 24 24 23 23 23 23 23 24 24 24 24 24 24 24 24 23 23 22 22 21 21 21 22 22 22 22 21 20 20 20 20 20 19 16 14 14 13 12 12 12 12 12 12 12 12 12 12 12 10 9 8 8 8 9 8 7
41 36 32 34 36 33 32 33 32 30 28 24 20 16 13 14 15 16 20 25 28 33 36 36 37 37 36 34 33 31 28 25 24 22 21 20 19 18 17 18 20 22 24 25 25 24 23 23 23 23 23 24 24 24 23 23 23 23 22 21 21 21 21 21 22 22 22 21 21 22 21 21 21 20 18 16 15 15 14 14 14 14 13 13 13 13 13 13 12 11 10 9 8 9 9 9 8
42 39 39 42 38 33 33 33 31 29 26 22 19 14 10 12 15 18 22 25 28 32 35 35 37 38 37 35 34 32 29 27 25 24 22 20 19 17 17 17 18 20 22 25 26 26 24 24 23 23 23 23 23 22 22 22 22 21 21 20 20 20 20 20 21 21 21 21 22 22 22 22 21 20 19 18 16 16 16 15 15 16 15 15 15 14 14 14 13 13 12 10 9 9 10 10 9
44 42 43 42 37 36 36 35 32 30 25 21 17 12 10 12 17 20 22 25 29 32 36 37 37 38 38 37 35 33 31 29 28 26 24 22 20 17 16 17 18 21 23 25 26 26 26 26 24 23 23 23 22 21 21 21 21 21 21 20 20 20 20 20 20 21 20 21 22 22 22 22 21 20 20 19 18 18 17 17 17 17 17 16 16 16 15 15 14 14 14 12 10 10 10 10 10
44 42 42 40 36 37 38 36 33 30 25 20 15 10 10 13 19 22 23 25 28 33 37 38 38 40 39 38 37 35 32 31 30 28 26 24 22 19 17 18 20 22 23 25 27 26 27 27 26 26 25 24 22 21 21 21 21 21 21 21 21 20 20 20 20 20 20 21 21 21 22 22 21 20 19 19 19 19 19 18 18 19 18 18 17 17 17 16 15 15 15 14 12 10 10 9 9
Wind_Direction
89 89 92 95 96 93 94 98 97 95 86 86 99 97 107 118 115 116 111 103 100 99 102 109 115 121 128 132 135 137 138 139 137 134 143 147 145 144 137 138 143 140 146 153 144 131 124 116 112 114 114 113 111 109 108 105 104 104 105 106 105 103 101 100 99 98 99 100 100 99 98 97 95 93 93 94 96 98 103 109 113 116 114 112 111 111 111 110 108 106 107 108 109 109 109 110 110
91 90 92 95 95 96 102 104 99 96 88 86 97 102 110 117 116 116 110 105 101 100 104 109 115 122 130 136 138 138 139 140 139 139 142 137 134 137 133 134 136 136 141 145 136 128 122 119 118 116 113 113 113 110 104 101 99 99 101 103 101 98 98 98 98 100 100 99 96 94 93 92 91 91 91 92 93 95 99 105 111 114 115 114 112 112 111 108 105 105 108 111 114 116 116 117 115
98 97 94 95 96 96 100 101 98 97 91 93 105 110 115 118 118 115 114 113 108 107 108 111 116 122 131 137 138 137 138 139 137 138 140 137 134 133 133 132 132 135 139 140 135 129 127 124 120 115 114 115 112 105 98 95 94 96 101 101 98 97 98 99 99 99 96 92 89 88 88 90 91 92 93 92 92 92 95 100 105 109 111 113 113 114 113 108 103 103 107 113 120 124 126 124 120
106 106 103 100 97 91 87 86 87 94 99 109 119 122 126 127 127 126 124 122 118 117 116 117 121 126 133 138 140 139 139 140 138 137 139 140 137 132 130 130 131 135 139 139 134 130 128 122 116 112 113 112 106 100 95 94 96 100 103 99 97 97 98 97 95 92 88 85 85 86 88 90 93 95 96 95 95 95 95 96 96 98 101 104 108 112 111 107 103 103 104 109 118 128 133 133 132
118 115 113 107 101 92 83 79 75 84 103 117 130 137 142 145 150 152 148 144 138 135 131 129 131 135 138 141 142 141 142 146 144 140 141 142 138 132 129 131 132 136 140 136 130 128 122 115 112 111 110 108 103 99 97 99 102 105 102 99 99 98 96 94 90 87 84 84 86 89 91 93 95 98 98 98 100 101 98 94 91 90 91 94 97 98 97 98 100 103 106 110 116 125 132 138 144
131 129 123 113 103 94 85 83 79 77 89 103 133 150 159 162 168 169 166 163 156 152 147 142 144 147 147 144 141 141 142 148 149 143 142 141 137 133 131 132 132 135 139 131 125 120 113 111 112 112 111 108 104 102 102 106 108 107 102 101 100 98 95 91 89 86 85 86 89 92 95 97 98 100 100 102 102 103 100 94 90 87 87 88 89 89 89 90 91 92 95 100 109 121 131 142 153
130 132 131 119 105 96 86 84 85 85 90 93 120 161 180 182 183 180 177 172 166 163 158 154 153 155 153 147 141 138 141 147 150 144 142 139 136 134 132 132 131 135 137 129 123 115 110 112 115 117 115 109 106 107 110 113 111 107 104 103 100 96 93 92 91 89 89 90 94 97 99 101 101 102 103 104 103 101 97 92 89 88 88 88 89 89 88 88 87 86 82 80 80 84 104 134 157
131 133 137 128 112 101 89 86 98 109 115 127 132 156 192 209 207 194 189 183 177 171 167 163 158 158 156 151 145 141 141 146 152 147 145 144 139 137 133 131 131 135 136 129 122 115 114 117 121 121 115 110 110 115 117 116 111 108 106 103 99 96 95 96 95 93 94 97 99 100 99 100 101 103 104 104 102 97 93 91 90 89 90 91 90 88 88 88 87 85 79 73 70 72 80 105 153
141 146 155 147 130 115 103 104 122 139 154 161 154 161 171 197 216 210 205 191 181 178 174 168 161 162 158 153 150 144 140 144 150 149 149 150 143 139 134 130 132 135 134 127 121 118 119 123 126 120 114 114 118 122 122 116 112 110 107 104 101 100 100 101 100 100 101 102 101 100 99 99 100 102 102 102 101 98 95 93 90 89 88 88 88 88 87 86 85 82 79 74 71 78 84 104 141
146 157 170 167 148 124 117 132 156 182 189 180 175 175 173 178 198 207 209 197 187 184 179 174 171 171 163 156 154 147 139 142 147 146 150 154 146 137 131 127 129 132 129 125 121 118 120 126 125 118 117 122 126 128 123 117 114 113 109 107 106 105 105 106 106 106 106 105 103 101 100 99 100 100 100 100 99 98 96 93 90 88 87 87 88 89 89 87 86 85 83 80 78 80 79 87 103
150 155 172 183 171 140 135 155 178 192 201 196 192 189 184 185 193 202 209 206 195 192 188 183 183 181 172 161 158 153 143 143 145 144 149 156 149 136 127 122 121 120 119 119 116 114 119 125 123 121 125 129 132 131 124 119 118 116 113 113 111 110 111 111 111 110 109 107 105 103 101 101 100 99 98 98 97 95 94 91 89 88 87 86 87 87 86 85 85 85 84 82 80 78 76 77 80
158 157 173 195 193 166 153 161 184 199 213 205 198 196 193 188 193 202 208 210 200 197 196 193 191 185 180 168 166 165 153 149 147 143 149 158 153 140 131 125 119 109 106 108 107 109 120 128 127 128 133 135 136 133 126 123 121 119 119 118 116 115 115 115 115 113 111 109 106 104 103 102 100 98 97 96 95 94 92 90 88 87 86 84 83 82 82 82 82 82 82 83 81 79 76 75 77
165 163 177 197 203 182 160 161 185 204 221 220 217 207 197 191 190 200 208 208 202 198 199 197 190 179 175 170 173 176 163 158 153 145 148 158 158 147 138 131 122 109 101 99 99 105 125 132 133 136 139 140 139 135 129 127 125 124 124 122 120 120 119 119 118 116 113 110 107 105 103 101 99 98 97 96 95 94 92 90 88 86 84 82 80 79 78 78 79 80 80 80 80 80 78 76 76
171 170 181 195 204 189 161 161 184 200 223 232 231 215 203 203 192 191 200 202 198 198 198 193 186 178 172 167 171 184 174 166 162 154 150 160 166 156 145 135 122 108 100 97 96 104 125 135 139 142 144 144 141 136 132 130 128 129 128 127 125 124 124 123 121 118 115 111 109 106 103 102 100 98 97 95 95 94 93 90 87 83 81 80 78 76 76 76 77 78 78 76 77 78 77 75 75
177 176 182 191 199 190 167 170 185 202 226 234 232 219 208 207 198 189 188 190 190 191 194 190 187 184 178 170 165 179 186 177 170 164 157 162 172 165 151 141 125 107 100 98 101 111 123 135 143 148 148 147 143 139 136 133 132 133 132 131 130 128 127 125 123 120 117 113 110 108 105 103 101 100 98 96 95 95 93 91 87 83 81 79 77 76 75 75 76 77 77 77 76 75 75 74 74
183 180 181 186 194 189 180 184 189 208 228 236 238 230 217 207 200 194 189 187 188 188 190 190 192 191 185 176 168 169 187 191 180 173 168 166 172 173 159 149 133 110 99 99 110 121 126 134 144 152 153 149 146 141 138 136 137 138 136 135 134 131 129 127 125 122 119 116 112 110 107 104 103 102 101 98 96 95 93 91 87 84 82 80 77 76 75 74 75 76 76 76 76 75 74 73 73
190 185 182 185 194 193 191 193 194 204 222 238 245 237 229 214 202 198 196 195 193 192 194 194 195 195 191 183 176 169 175 193 193 183 178 172 171 175 169 157 141 115 98 99 120 130 131 135 147 156 156 152 149 144 140 140 141 141 139 138 136 134 132 130 127 124 120 117 115 112 109 107 105 104 103 101 98 95 92 88 86 84 84 82 81 78 75 73 73 74 74 74 74 74 74 72 71
193 189 184 188 198 202 199 199 203 210 224 240 241 234 229 219 207 201 200 202 200 197 197 198 198 196 196 193 185 175 172 181 199 196 186 181 177 177 175 164 147 115 93 99 127 139 137 141 151 159 158 154 152 147 143 143 144 143 142 141 138 136 134 132 129 126 122 119 116 114 111 110 109 107 105 104 101 98 94 90 86 84 83 83 83 81 77 74 71 71 72 74 74 74 75 73 69
195 191 189 192 204 207 201 202 211 222 232 241 242 237 234 225 212 201 197 203 205 202 198 198 199 193 194 198 191 183 178 176 187 204 196 187 184 180 177 169 149 113 86 102 133 146 145 147 155 160 160 158 155 150 146 146 147 145 145 143 141 138 136 134 132 128 125 122 119 117 114 113 112 110 109 107 104 100 97 94 90 88 86 84 82 79 76 74 72 70 70 71 74 74 73 73 69
197 196 194 198 208 208 200 202 213 226 233 243 251 251 246 234 215 200 191 195 203 200 195 195 197 195 194 195 192 187 187 182 177 194 203 193 188 183 175 168 147 117 104 118 141 152 153 153 157 162 162 161 158 152 148 149 149 148 147 146 143 141 139 137 134 131 128 125 123 120 118 116 115 114 112 109 105 101 98 97 96 94 90 85 81 77 74 71 71 70 67 65 68 68 66 70 68
198 201 202 203 211 210 202 204 214 228 235 241 249 249 244 230 213 200 184 182 192 191 188 189 191 196 198 194 192 190 193 193 182 184 198 198 191 185 177 168 154 162 167 145 147 156 159 158 160 163 163 163 160 155 151 151 151 150 151 149 147 144 142 139 137 134 131 129 126 123 121 119 117 115 113 110 107 105 102 101 98 94 89 84 81 78 76 72 70 69 65 59 60 61 61 63 65
199 207 207 207 214 212 205 207 217 228 231 233 239 242 238 224 211 200 184 177 184 187 185 182 179 186 194 194 195 196 195 200 197 191 195 200 196 189 182 174 176 190 183 161 154 159 163 162 163 164 163 165 163 157 155 154 153 153 154 152 150 148 145 142 140 138 135 132 128 126 124 121 118 116 114 112 111 109 107 104 99 94 90 86 81 76 74 71 69 67 64 59 55 57 59 59 59
201 208 205 208 216 212 207 210 217 225 226 224 228 235 235 221 208 200 191 185 188 190 186 180 173 173 182 192 198 203 204 205 209 204 202 205 202 197 191 184 188 194 185 169 161 161 164 165 166 164 163 166 165 161 159 157 156 156 157 155 154 152 149 147 145 142 140 137 133 129 127 124 121 119 118 117 115 113 110 105 100 97 94 90 84 75 69 66 63 62 60 57 52 50 52 53 53
202 204 202 207 212 211 209 213 217 222 223 221 222 225 222 210 203 201 199 201 205 194 181 176 171 168 172 186 199 208 212 212 213 212 210 210 208 206 203 198 195 192 186 178 167 163 166 168 168 165 164 168 167 165 163 161 160 160 160 159 158 157 153 152 148 146 145 141 138 134 130 126 123 123 122 121 118 115 111 106 102 98 92 86 81 75 69 65 59 53 51 52 48 43 41 39 39
203 200 202 202 206 210 211 215 217 218 221 223 222 218 214 204 196 198 199 208 215 201 184 176 169 167 170 177 197 211 216 216 215 212 210 210 210 211 210 207 201 195 189 183 173 167 166 169 170 167 167 169 169 168 167 165 164 164 164 163 163 161 157 156 153 151 150 147 142 137 132 128 127 126 123 121 118 115 112 108 104 97 91 82 73 67 63 61 53 45 43 46 46 40 37 31 23
205 203 204 200 200 202 207 215 214 212 218 228 230 220 209 196 185 186 188 196 208 205 192 180 170 165 167 170 183 207 219 218 213 211 210 208 209 211 212 210 204 198 191 183 176 170 168 170 172 172 170 170 171 172 170 168 167 167 168 168 167 165 162 160 158 156 155 150 145 139 135 132 131 129 126 123 119 117 114 109 103 96 87 78 64 52 43 39 36 32 32 36 41 39 37 31 17
209 209 206 202 197 190 199 208 208 212 222 236 240 223 204 187 175 177 185 196 205 203 193 181 169 161 161 166 169 186 214 218 208 204 207 208 209 210 210 209 203 198 192 183 176 172 170 171 173 175 173 172 173 174 172 169 168 169 171 171 170 169 167 164 162 161 158 153 147 143 139 137 134 132 128 125 123 121 117 112 103 92 82 68 53 38 23 16 15 18 19 22 28 32 33 32 18
214 214 207 204 196 185 191 197 199 218 233 240 234 212 199 181 166 169 168 176 199 201 195 184 169 156 153 161 168 173 196 216 209 201 202 205 207 207 207 206 200 197 194 183 175 173 173 173 175 176 176 176 176 175 173 171 171 173 174 173 173 173 171 168 167 165 162 157 152 149 144 141 138 136 135 131 129 127 125 120 105 89 70 45 32 21 7 3 8 10 11 13 18 22 22 24 20
217 216 209 206 198 188 189 195 199 219 234 231 215 196 193 183 167 163 149 136 160 178 184 183 170 156 147 151 168 173 184 212 223 215 207 203 203 205 205 201 197 198 194 183 177 175 174 175 177 177 178 179 178 177 175 175 175 177 177 176 176 176 173 173 172 171 168 162 158 157 152 148 144 140 138 135 133 134 135 124 99 73 40 20 14 10 2 4 14 13 11 13 15 16 11 9 12
221 219 212 209 203 195 196 203 206 215 225 218 205 187 183 195 181 166 147 129 134 154 157 166 164 159 147 142 162 175 183 200 226 232 218 206 201 199 196 194 197 197 192 186 180 176 175 176 178 179 180 181 181 179 178 178 178 179 181 180 180 178 176 177 177 176 175 170 168 166 162 156 150 146 143 140 139 142 137 111 81 51 23 6 358 360 5 14 23 25 22 21 19 14 8 6 10
222 221 215 211 205 202 205 212 212 214 213 202 203 191 183 211 191 171 156 139 133 141 145 150 153 157 149 142 150 169 182 189 210 224 218 206 199 194 189 189 195 192 190 190 182 177 177 177 179 181 182 183 183 183 182 180 180 182 183 182 183 181 180 182 181 182 180 176 176 173 169 163 157 155 152 148 146 146 131 86 58 22 358 346 341 345 5 30 36 33 27 21 16 10 4 4 9
223 223 218 213 210 207 210 218 217 217 209 194 200 193 190 214 196 177 164 151 143 141 138 140 147 150 149 146 143 154 180 192 206 216 215 205 196 193 191 191 194 191 190 190 182 177 179 179 180 182 184 185 186 187 186 182 182 184 184 183 185 184 185 186 185 184 182 179 179 177 174 168 162 160 156 152 149 144 110 52 24 349 332 325 324 333 2 33 37 31 23 12 5 360 355 356 2
225 225 220 216 214 212 215 220 217 217 210 195 194 192 198 213 196 181 170 162 156 150 141 136 144 150 147 146 145 147 167 196 208 211 212 206 199 195 195 195 195 194 193 188 181 178 180 182 182 183 185 187 188 189 188 185 185 185 184 185 187 188 189 189 189 186 181 179 180 179 176 170 166 163 159 154 149 135 68 22 359 339 325 318 316 321 352 25 24 18 13 6 358 351 349 351 355
227 225 222 219 214 212 216 221 218 214 210 197 190 194 205 209 190 183 179 173 168 160 151 143 146 154 155 149 141 138 144 181 209 208 206 206 203 200 197 198 197 196 194 186 181 181 181 183 183 183 186 187 188 190 189 186 186 186 186 188 189 191 193 192 189 185 181 180 181 180 177 173 169 165 160 155 145 122 69 30 7 350 338 331 323 318 333 1 7 7 9 4 358 354 353 357 1
231 228 227 225 219 213 217 224 222 215 210 199 191 196 204 204 195 191 187 183 178 173 165 155 151 155 158 150 137 127 125 150 190 200 202 202 203 204 201 199 198 197 193 184 181 181 182 184 183 183 186 186 186 187 186 185 186 187 188 191 192 193 194 193 188 184 183 183 182 181 178 175 172 167 161 152 137 111 76 47 23 8 5 4 13 52 9 359 3 9 13 9 6 4 2 4 8
232 231 229 228 225 220 220 227 226 218 213 206 198 195 197 200 202 197 191 189 187 182 175 163 158 159 157 150 140 130 127 148 172 180 191 197 198 202 202 199 197 197 191 183 179 178 181 183 181 182 184 183 182 182 181 183 187 189 190 192 193 194 195 192 187 185 184 184 184 181 178 176 174 169 159 143 123 98 68 45 29 21 28 47 73 86 72 30 17 18 16 10 8 9 8 8 9
231 231 229 227 227 224 223 228 229 225 221 215 206 199 197 201 205 201 196 192 188 184 179 171 166 166 162 156 149 144 143 158 175 175 177 185 191 194 198 198 195 194 189 182 178 177 179 180 179 180 181 178 179 181 181 185 188 189 190 191 191 193 192 189 187 186 185 184 183 180 177 177 175 168 155 137 119 94 62 37 26 26 41 63 74 76 65 38 24 21 15 10 9 11 13 14 14
231 229 228 225 225 224 225 229 230 229 227 221 214 205 201 205 205 204 201 193 187 187 186 181 176 175 170 162 156 156 159 168 184 184 177 177 182 186 192 194 191 188 186 181 178 178 177 177 178 177 176 177 181 184 185 188 189 189 189 187 188 189 188 187 186 184 182 181 179 178 177 176 172 164 153 140 128 105 56 27 22 28 46 66 71 66 54 32 19 17 13 12 12 14 20 24 24
228 226 226 221 220 221 225 229 230 231 231 226 221 211 205 208 207 206 205 196 192 194 193 193 189 185 177 167 162 162 167 174 185 193 185 179 176 178 185 189 187 185 183 181 179 179 178 178 178 175 175 180 184 186 189 190 190 188 184 182 184 184 183 183 183 182 181 179 177 177 175 170 167 162 156 151 145 130 36 8 13 26 48 68 67 56 39 18 13 14 14 18 18 17 24 31 30
223 224 224 217 217 221 224 229 229 229 232 228 225 218 207 210 210 209 209 202 199 200 200 202 198 190 181 171 168 168 169 173 180 190 191 185 177 175 181 185 185 184 182 181 181 181 182 181 178 176 179 182 185 188 190 190 187 182 178 180 181 181 181 181 183 184 181 180 178 175 170 165 163 161 159 160 159 174 288 335 358 15 44 67 51 31 19 9 9 14 18 23 19 15 19 25 27
222 222 221 215 218 221 218 225 225 226 233 232 230 224 211 210 212 211 212 209 204 204 207 208 203 195 186 175 169 168 169 172 176 183 189 190 184 179 181 184 184 184 183 183 184 184 185 184 181 180 181 182 185 188 188 185 181 178 177 180 181 181 183 186 188 187 184 181 177 171 166 163 163 162 162 171 181 228 270 299 332 349 358 36 21 7 4 4 11 21 25 25 19 11 7 9 15
221 219 219 218 221 220 216 223 224 223 230 235 234 229 215 209 212 213 216 214 207 207 211 208 204 201 191 178 171 167 168 171 173 179 186 193 192 187 184 184 185 185 185 186 188 189 188 186 183 182 182 182 185 185 182 180 180 180 180 182 184 185 189 192 192 189 184 178 171 166 166 166 168 168 174 215 248 265 272 284 303 305 284 322 352 353 356 1 13 27 30 26 16 5 355 354 2
217 214 214 218 220 220 218 222 223 221 225 232 234 230 217 209 211 214 217 216 210 210 212 206 204 203 194 184 179 173 169 170 172 176 184 193 195 195 192 189 189 188 189 190 190 190 190 187 185 183 182 182 182 180 178 179 182 183 185 187 188 191 195 195 190 185 177 171 170 172 174 174 176 180 203 273 277 275 276 282 289 282 265 281 330 341 350 1 10 14 16 12 3 355 349 348 352
217 213 212 213 217 221 221 220 222 222 223 230 234 232 224 214 209 213 218 216 212 213 212 206 203 200 194 190 186 181 176 172 173 174 178 190 196 198 197 196 195 193 192 192 192 192 191 189 187 184 182 180 178 176 177 181 184 186 189 190 191 195 197 192 183 179 175 176 181 182 182 183 183 190 255 332 319 297 286 285 288 279 261 269 316 331 341 354 355 351 351 352 350 350 350 346 346
220 217 211 209 214 219 220 221 223 222 224 230 234 234 232 221 209 214 220 217 216 216 212 205 201 197 192 192 191 190 186 178 175 174 174 184 197 201 201 200 199 196 194 194 193 193 192 191 189 185 181 179 177 177 180 184 186 188 191 192 193 195 193 184 180 180 182 187 192 190 192 195 196 208 274 342 345 332 312 298 293 285 265 260 297 315 322 332 333 335 337 339 343 346 347 346 347
219 217 209 207 213 215 217 222 223 222 226 230 231 232 236 228 208 214 221 219 217 216 212 205 198 195 192 192 193 195 196 188 180 177 174 179 193 201 202 202 200 197 195 196 194 192 191 191 189 186 182 179 178 180 183 185 187 189 191 192 194 193 187 183 185 187 191 196 199 198 202 209 216 233 268 314 337 342 331 314 301 291 272 258 276 295 303 311 317 324 329 332 337 341 344 348 350
217 211 205 208 213 214 217 221 221 224 231 233 230 229 238 234 204 210 221 220 216 213 209 205 197 193 192 192 193 196 200 197 189 183 178 179 189 197 199 201 202 199 196 196 194 191 190 190 189 187 185 183 183 184 186 186 187 188 191 192 193 190 186 187 192 195 198 202 204 206 210 216 224 238 258 284 312 332 333 324 310 297 279 259 262 280 293 300 307 316 323 327 331 336 343 349 351
220 210 208 211 214 216 219 221 222 230 238 238 232 228 237 235 195 205 221 216 212 209 205 205 198 192 193 193 194 194 195 200 199 194 187 184 187 192 196 199 201 200 198 199 197 193 190 189 190 190 189 188 188 189 190 189 188 189 190 193 193 191 190 193 198 202 204 207 210 213 216 219 224 234 247 265 288 312 327 328 317 304 285 264 260 271 285 293 302 310 316 321 327 333 340 345 343
225 216 215 217 217 220 224 225 229 239 245 242 236 229 236 237 185 204 221 212 207 206 202 204 200 194 195 194 195 194 192 198 202 200 196 190 187 188 196 199 199 200 200 201 200 197 194 192 194 194 193 193 194 195 195 193 192 192 192 194 195 193 194 199 205 209 210 213 215 217 220 222 226 234 244 254 267 289 314 325 321 308 290 271 261 266 277 287 297 305 308 316 324 328 333 334 330
230 226 226 227 228 228 229 232 236 245 248 246 244 237 240 246 212 210 219 209 205 204 201 203 200 197 195 194 196 195 194 197 200 203 201 194 189 189 195 199 199 201 202 202 201 200 199 198 199 199 199 198 198 199 199 198 197 197 197 198 198 197 198 203 210 213 216 218 220 221 222 227 231 236 243 249 256 272 296 313 318 310 294 276 263 266 275 282 292 299 301 311 319 320 322 322 322
232 230 231 233 234 234 235 238 243 248 248 248 251 246 247 253 233 213 207 205 205 202 201 202 199 199 198 196 199 198 198 200 201 205 204 199 195 193 195 197 198 202 204 204 204 203 203 204 203 203 203 202 202 202 202 202 203 203 202 203 202 202 202 206 213 217 221 223 224 225 226 230 235 238 244 247 251 265 283 301 308 305 293 276 264 266 274 280 288 291 292 304 314 315 315 317 322
230 228 229 229 231 235 237 240 242 244 244 249 255 255 253 253 233 198 190 197 201 199 199 201 200 201 202 202 202 200 201 203 203 206 206 204 203 201 199 197 198 203 206 207 208 208 209 209 208 207 206 205 204 204 205 205 206 206 206 206 206 206 207 210 215 219 223 226 228 228 229 233 237 241 244 244 245 259 276 291 299 298 288 273 263 264 272 278 283 285 284 295 307 309 310 315 323
231 229 229 228 229 230 232 235 237 240 243 249 252 244 244 244 224 191 187 189 196 199 199 201 202 204 207 207 204 202 203 204 204 205 206 207 209 210 207 201 201 205 207 209 211 213 214 214 213 212 211 209 209 209 210 209 210 210 210 210 210 211 212 214 218 221 225 228 230 231 231 234 239 242 242 241 242 254 269 281 291 293 285 271 262 261 268 276 279 278 276 285 298 303 305 311 320
229 228 227 226 225 223 225 229 232 235 239 244 243 231 232 231 212 195 189 187 194 200 201 203 204 207 211 209 205 205 205 205 205 205 207 208 210 214 216 210 206 206 207 209 211 215 218 219 218 217 215 214 214 215 215 214 215 215 215 215 215 215 216 219 222 225 228 231 232 234 234 235 237 241 244 243 242 249 263 274 284 290 285 273 262 259 264 273 276 272 268 274 289 297 301 306 313
224 223 220 222 224 222 225 229 231 234 237 241 244 237 225 216 202 191 187 186 191 197 201 203 205 210 213 211 208 207 206 206 206 208 210 210 210 212 217 220 218 214 210 209 211 214 216 219 220 220 219 218 218 218 219 220 220 221 221 221 221 221 221 223 226 229 232 235 236 238 238 237 238 241 244 245 244 248 258 269 278 286 285 274 263 258 260 267 273 268 262 265 279 291 297 302 309
222 220 219 222 223 221 224 229 232 235 237 240 245 235 211 203 198 192 188 187 189 194 200 203 205 210 214 212 210 209 208 207 208 211 212 213 213 212 214 219 223 223 219 214 212 211 211 215 218 220 220 220 219 219 222 224 226 229 230 230 229 229 228 229 231 234 236 238 239 241 242 242 242 242 245 246 247 248 254 263 273 282 284 276 264 257 256 261 268 265 259 259 269 282 291 298 307
224 223 225 228 226 223 226 229 229 231 231 231 233 227 219 209 193 187 188 188 190 194 199 203 204 208 211 211 210 210 209 208 208 210 211 212 214 216 220 225 225 225 223 221 217 211 209 210 213 218 220 221 221 222 224 226 229 231 234 236 236 236 236 236 236 238 240 242 243 245 246 247 247 246 247 248 248 248 251 260 271 279 282 276 265 256 254 257 264 262 257 255 261 272 284 297 307
226 227 231 234 231 228 231 231 231 233 232 231 233 224 214 196 179 180 186 190 192 193 197 201 203 205 208 208 209 210 209 209 208 208 207 208 211 215 222 232 234 228 224 224 223 218 214 211 211 216 219 220 223 225 227 230 231 232 235 238 239 240 241 243 243 245 246 246 248 249 250 251 252 250 248 248 248 248 251 258 267 275 279 275 264 256 252 254 260 261 256 253 256 264 278 294 306